STARLINK-2615 (48678 NORAD) Tracking and Keplerian Element Data

This shows tracking and keplerian element data for the satellite.

Feedback or suggestion? Click here.




ElementValue
Catalog48678
NameSTARLINK-2615
Epoch Orbit364
Epoch Day214.91667824
Epoch Year2021
RAAN92.4852
Inclination53.045
Eccentricity0.0001311
Argument of Perigee74.7778
Mean Anonmoly2.0974
Mean Motion15.1320245
Decay Rate-0.00925969
L11 48678U 21044AS 21214.91667824 -.00925969 00000-0 -55734-1 0 9994
L22 48678 53.0450 92.4852 0001311 74.7778 2.0974 15.13202450 3646

Live tracking and technical data element details for STARLINK-2615 (NORAD 48678). STARLINK-2615 can be tracked NOW for your location showing map with azimuth and elevation plus other details from your city location.

Track the satellite on the map from your city or location and see movement details for azimuth, elevation, latitude, longitude, range, height, and movement on the map or in text.







IsCatalogInMostPopularTable: catalog: 48678, numindb: 13
Update: records affected: 1



GetName: 48678 STARLINK-2615

Hit Count: updated at: Wed, 04 Aug 2021 00:41:06 GMT